#timestamp,LO_Frequency,Hit,StdDev 
1623528015.4,286047000.0,N
1623528035.2,286047000.2,N
1623528055.1,286046998.1,N
1623528056.0,286046998.1,N
1623528075.8,286046999.4,N
1623528095.6,286046999.0,N
1623528115.5,286046998.4,N
1623528135.3,286046999.2,N
1623528155.2,286046998.3,N
1623528175.9,286046999.0,N
1623528195.7,286046998.7,N
1623528215.6,286047000.3,N
1623528235.4,286047000.4,N
1623528255.2,286047000.5,N
1623528275.1,286047000.2,N
1623528276.0,286047000.2,N
1623528295.8,286047000.6,N
1623528315.7,286046998.7,N
1623528335.5,286047001.1,N
1623528355.3,286047001.2,N
1623528375.2,286046998.1,N
1623528395.0,286047001.1,N
1623528395.9,286047001.1,N
1623528415.8,286047000.2,N
1623528435.6,286047000.2,N
1623528455.4,286047000.5,N
1623528475.3,286047002.7,N
1623528495.1,286047000.2,N
1623528515.8,286047001.4,N
1623528535.7,286047002.0,N
1623528555.5,286047002.3,N
1623528575.4,286047002.0,N
1623528595.2,286046999.9,N
1623528615.0,286047002.6,N
1623528615.9,286047002.6,N
1623528635.8,286046999.9,N
1623528655.6,286047000.4,N
1623528675.5,286047000.2,N
1623528695.3,286047000.6,N
1623528715.1,286047001.2,N
1623528735.9,286046998.2,N
1623528755.7,286047001.1,N
1623528775.5,286046998.5,N
1623528795.4,286046997.3,N
1623528815.2,286046998.5,N
1623528835.1,286046998.8,N
1623528836.0,286046998.8,N
1623528855.8,286047000.2,N
1623528875.6,286046999.9,N
1623528895.5,286047002.4,N
1623528915.3,286047000.3,N
1623528935.2,286047002.4,N
1623528955.0,286047000.2,N
1623528955.9,286047000.2,N
1623528975.7,286047001.6,N
1623528995.6,286047001.6,N
1623529015.4,286047002.6,N
1623529035.3,286046999.9,N
1623529055.1,286047000.4,N
1623529056.0,286047000.4,N
1623529075.8,286047001.6,N
1623529095.7,286047002.5,N
1623529115.5,286047002.8,N
1623529135.4,286047002.1,N
1623529155.2,286047002.3,N
1623529175.0,286047001.7,N
1623529175.9,286047001.7,N
1623529195.8,286047003.7,N
1623529215.6,286047003.7,N
1623529235.5,286047003.5,N
1623529255.3,286047003.2,N
1623529275.1,286047004.2,N
1623529295.9,286047006.0,Y
1623529315.7,286047002.0,P
1623529335.6,286046999.8,N
1623529355.4,286047001.2,N
1623529375.2,286046999.4,N
1623529395.1,286046997.5,N
1623529396.0,286046997.5,N
1623529415.8,286046995.3,N
1623529435.6,286046994.9,N
1623529455.5,286046993.4,N
1623529475.3,286046996.0,N
1623529495.2,286046996.3,N
1623529515.9,286046995.1,N
1623529535.7,286046997.8,N
1623529555.6,286046999.2,N
1623529575.4,286046999.0,N
1623529595.2,286046998.8,N
1623529615.1,286046999.1,N
1623529616.0,286046999.1,N
1623529635.8,286047001.2,N
1623529655.7,286047001.2,N
1623529675.5,286046998.2,N
1623529695.3,286046998.5,N
1623529715.2,286046999.0,N
1623529735.0,286046999.5,N
1623529735.9,286046999.5,N
1623529755.8,286046997.4,N
1623529775.6,286046997.6,N
1623529795.4,286046998.0,N
1623529815.3,286046996.7,N
1623529835.1,286046999.1,N
1623529855.8,286046996.6,N
1623529875.7,286046995.4,N
1623529895.5,286046995.4,N
1623529915.4,286046995.0,N
1623529935.2,286046997.3,N
1623529955.1,286046998.0,N
1623529956.0,286046998.0,N
1623529975.8,286046997.6,N
1623529995.6,286046997.9,N
1623530015.5,286046995.4,N
1623530035.3,286046995.4,N
1623530055.1,286046995.6,N
1623530075.9,286046995.3,N
1623530095.7,286046995.1,N
1623530115.6,286046998.0,N
1623530135.4,286046997.4,N
1623530155.2,286046995.7,N
1623530175.1,286046993.8,Y
1623530176.0,286046993.8,P
1623530195.8,286046996.8,N
1623530215.6,286046996.7,N
1623530235.5,286046997.1,N
1623530255.3,286046997.9,N
1623530275.2,286046997.8,N
1623530295.9,286046997.1,N
1623530315.7,286046997.9,N
1623530335.6,286046997.7,N
1623530355.4,286046995.9,Y
1623530375.2,286046999.4,P
1623530395.1,286047000.7,N
1623530396.0,286047000.7,N
1623530415.8,286047002.4,N
1623530435.7,286047000.0,N
1623530455.5,286047000.8,N
1623530475.3,286046998.1,N
1623530495.2,286046998.7,N
1623530515.0,286046996.5,N
1623530515.9,286046996.5,N
1623530535.7,286046996.6,N
1623530555.6,286046996.9,N
1623530575.4,286046997.0,N
1623530595.3,286046997.6,N
1623530615.1,286046997.1,N
1623530616.0,286046997.1,N
1623530635.8,286046997.8,N
1623530655.7,286046997.3,N
1623530675.5,286046997.8,N
1623530695.4,286046997.7,N
1623530715.2,286046997.1,N
1623530735.0,286046996.6,N
1623530735.9,286046996.6,N
1623530755.8,286046998.4,N
1623530775.6,286046998.8,N
1623530795.4,286046998.5,N
1623530815.3,286046999.3,N
1623530835.1,286046998.8,N
1623530855.9,286047000.7,N
1623530875.7,286046998.8,N
1623530895.5,286046998.2,N
1623530915.4,286047000.7,N
1623530935.2,286047000.5,N
1623530955.0,286047000.0,N
1623530955.9,286047000.0,N
1623530975.8,286047002.2,N
1623530995.6,286047002.4,N
1623531015.5,286047002.8,N
1623531035.3,286047000.5,N
1623531055.1,286047000.4,N
1623531075.9,286047000.4,N
1623531095.7,286047000.9,N
1623531115.5,286047000.8,N
1623531135.4,286047000.4,N
1623531155.2,286047001.0,N
1623531175.1,286047002.1,N
1623531176.0,286047002.1,N
1623531195.8,286047002.8,N
1623531215.6,286046999.8,N
1623531235.5,286047002.3,N
1623531255.3,286047000.3,N
1623531275.1,286047002.2,N
1623531295.9,286047002.7,N
1623531315.7,286047001.1,N
1623531335.6,286046998.1,N
1623531355.4,286047001.2,N
1623531375.2,286047001.2,N
1623531395.1,286047001.3,N
1623531396.0,286047001.3,N
1623531415.8,286047001.9,N
1623531435.6,286047002.0,N
1623531455.5,286047002.2,N
1623531475.3,286047000.2,N
1623531495.2,286047004.0,Y
1623531515.9,286047002.3,P
1623531535.7,286047001.4,N
1623531555.6,286047004.3,P
1623531575.4,286047002.6,N
1623531595.2,286046999.8,N
